[[{"header":{"parameterUnit":"m.s-1","parameterCategory":2,"la1":30.2991,"la2":30.254,"lo1":-89.0895,"lo2":-89.0444,"dy":0.0017,"dx":0.0017,"nx":28,"ny":28,"refTime":"2025-09-05T03:00:00:Z","depth":"0","parameterNumber":2,"parameterNumberName":"U-component_of_CURRENTS"},"data":[0,0,0,0,0,0,0,0,0,0,0,0,0,0,0,0,0,0,0,0,0,0,0,0,0,0,0,0,0,0,0,0,0,0,0,0,0,0,0,0,0,0,0,0,0,0,0,0,0,0,0,0,0,0,0,0,0,0,-0.3325,-0.3326,0,-0.3323,-0.3323,-0.3322,-0.3243,-0.3241,-0.324,-0.3238,-0.3157,-0.3157,-0.3156,0,0,0,0,0,0,0,0,0,0,0,0,0,-0.3224,-0.3226,-0.3325,-0.3326,-0.3326,-0.3323,-0.3323,-0.3322,-0.3243,-0.3241,-0.3239,-0.3238,-0.3157,-0.3157,-0.3156,0,0,0,0,0,0,0,0,0,0,0,0,0,-0.3246,-0.3227,-0.3325,-0.329,-0.3287,-0.3323,-0.3323,-0.3322,-0.3244,-0.3241,-0.3239,-0.3237,-0.3158,-0.3157,-0.3156,-0.3199,0,0,-0.3153,-0.3153,0,0,0,0,0,0,0,0,-0.3245,-0.3249,-0.3295,-0.3292,-0.3289,-0.3285,-0.3257,-0.3279,-0.3244,-0.3255,-0.3238,-0.3235,-0.3197,-0.3193,-0.3193,-0.3196,-0.3192,-0.3153,-0.3152,-0.3152,-0.3152,0,0,0,0,0,0,0,-0.3243,-0.3248,-0.332,-0.3295,-0.3292,-0.3261,-0.3262,-0.3261,-0.3235,-0.3254,-0.325,-0.3257,-0.3194,-0.3194,-0.319,-0.3191,-0.3153,-0.3152,-0.3151,-0.3151,-0.3192,-0.3194,0,0,0,0,0,0,-0.3258,-0.3248,-0.332,-0.332,-0.3265,-0.3266,-0.3266,-0.3285,-0.3237,-0.3229,-0.3259,-0.3254,-0.3197,-0.3191,-0.3187,-0.3199,-0.3152,-0.3151,-0.315,-0.3191,-0.3193,-0.3194,0,0,0,0,0,0,-0.3256,-0.3265,-0.332,-0.3286,-0.3291,-0.3271,-0.3293,-0.3286,-0.3278,-0.3243,-0.3231,-0.3257,-0.3195,-0.3188,-0.3198,-0.3197,-0.3151,-0.315,-0.3189,-0.3191,-0.3194,-0.3248,0,0,0,0,0,0,-0.3253,-0.3265,-0.3279,-0.3288,-0.3294,-0.335,-0.3295,-0.3288,-0.3289,-0.3281,-0.3238,-0.3228,-0.3192,-0.32,-0.3197,-0.3195,-0.3149,-0.3187,-0.319,-0.3193,-0.3244,-0.3252,-0.3258,0,0,0,0,0,-0.325,-0.3288,-0.328,-0.3289,-0.3317,-0.3352,-0.3353,-0.3325,-0.3292,-0.3304,-0.3277,-0.3229,-0.3216,-0.3201,-0.3197,-0.3194,-0.3185,-0.3189,-0.3193,-0.3241,-0.325,-0.3258,0,0,0,0,0,0,-0.3245,-0.3285,-0.3276,-0.3321,-0.3338,-0.3341,-0.3352,-0.3335,-0.3326,-0.3309,-0.3263,-0.3254,-0.3256,-0.3235,-0.322,-0.3219,-0.3188,-0.3191,-0.3226,-0.3235,-0.3242,-0.3233,-0.3148,0,0,0,0,0,-0.3257,-0.3294,-0.332,-0.3352,-0.3367,-0.336,-0.3367,-0.3354,-0.3351,-0.3342,-0.3314,-0.3287,-0.3274,-0.3262,-0.3251,-0.3264,-0.3177,-0.3258,-0.3265,-0.3271,-0.3264,-0.3161,-0.3156,-0.3207,-0.3207,-0.3207,0,0,-0.3256,-0.3288,-0.3302,-0.3353,-0.3359,-0.3391,-0.3356,-0.3379,-0.3385,-0.3338,-0.3335,-0.3317,-0.3287,-0.3291,-0.3289,-0.3268,-0.3206,-0.3276,-0.3281,-0.327,-0.3164,-0.3158,-0.3153,-0.3209,-0.3209,-0.3208,0,0,-0.3289,-0.3311,-0.3354,-0.3381,-0.3413,-0.3415,-0.3427,-0.3438,-0.3418,-0.344,-0.3392,-0.338,-0.3375,-0.3339,-0.3324,-0.3373,-0.3253,-0.3368,-0.3389,-0.3289,-0.3283,-0.3276,-0.3123,-0.3103,-0.3366,-0.3366,-0.3366,0,-0.3278,-0.3343,-0.3369,-0.342,-0.3431,-0.343,-0.346,-0.3464,-0.3469,-0.3449,-0.3446,-0.341,-0.3392,-0.3363,-0.3384,-0.3383,-0.3288,-0.3353,-0.3294,-0.3286,-0.3278,-0.3123,-0.3099,-0.3369,-0.3369,-0.3368,-0.3368,0,-0.3348,-0.3391,-0.3421,-0.3478,-0.3497,-0.3528,-0.3538,-0.3539,-0.3522,-0.3511,-0.3489,-0.3472,-0.3438,-0.3438,-0.3431,-0.3374,-0.3308,-0.3314,-0.326,-0.3275,-0.3112,-0.3086,-0.3373,-0.3372,-0.3371,-0.3371,0,0,-0.331,-0.3443,-0.3446,-0.3458,-0.3523,-0.3527,-0.3555,-0.3555,-0.3523,-0.3543,-0.3493,-0.3509,-0.3482,-0.3464,-0.3438,-0.337,-0.3239,-0.3327,-0.3321,-0.3155,-0.296,-0.2866,-0.2827,-0.3225,-0.3222,-0.322,-0.2853,0,-0.3334,-0.3444,-0.3495,-0.3529,-0.3561,-0.3566,-0.3571,-0.3566,-0.3554,-0.3512,-0.3492,-0.3452,-0.3495,-0.3457,-0.3411,-0.3272,-0.318,-0.3334,-0.2989,-0.2977,-0.2876,-0.2799,-0.2726,-0.239,-0.2827,-0.2823,-0.2819,0,-0.335,-0.3423,-0.3499,-0.3518,-0.3523,-0.3541,-0.3499,-0.3504,-0.3475,-0.3454,-0.344,-0.342,-0.3344,-0.3374,-0.3152,-0.3241,-0.3115,-0.3013,-0.2996,-0.2872,-0.2837,-0.2456,-0.2326,-0.2341,-0.2779,-0.2782,-0.2785,0,-0.3276,-0.3378,-0.3431,-0.3453,-0.3511,-0.3499,-0.3498,-0.3483,-0.3416,-0.3405,-0.334,-0.3305,-0.3196,-0.3101,-0.2953,-0.3024,-0.2663,-0.2724,-0.251,-0.2499,-0.235,-0.2332,-0.2178,-0.2551,-0.2552,-0.2553,-0.2554,0,-0.3255,-0.3268,-0.3399,-0.3421,-0.3386,-0.3445,-0.336,-0.3371,-0.3315,-0.3187,-0.3292,-0.3158,-0.3119,-0.2944,-0.2868,-0.2577,-0.2583,-0.2468,-0.2394,-0.2366,-0.2355,-0.2295,-0.235,-0.2539,-0.2542,-0.2545,-0.2547,0,-0.3136,-0.3257,-0.328,-0.3361,-0.3356,-0.3319,-0.3236,-0.3132,-0.3166,-0.2997,-0.2977,-0.2939,-0.2723,-0.2657,-0.2413,-0.2379,-0.2123,-0.208,-0.203,-0.196,-0.1828,-0.1889,-0.1609,-0.1565,-0.177,-0.1765,-0.1761,0,-0.3081,-0.3109,-0.3192,-0.3154,-0.318,-0.3123,-0.3014,-0.3027,-0.2912,-0.2821,-0.2694,-0.2534,-0.2357,-0.2027,-0.1939,-0.1739,-0.1831,-0.1579,-0.1742,-0.1765,-0.1778,-0.1849,-0.1842,-0.1532,-0.1527,-0.1522,-0.1519,0,-0.2919,-0.2974,-0.2999,-0.295,-0.2866,-0.2727,-0.2623,-0.2539,-0.2494,-0.242,-0.224,-0.2129,-0.1866,-0.1655,-0.1482,-0.1395,-0.1579,-0.148,-0.1512,-0.1574,-0.1627,-0.1568,-0.181,-0.148,-0.1484,-0.1486,-0.1489,-0.149,-0.2737,-0.2723,-0.2749,-0.2666,-0.2537,-0.2325,-0.2183,-0.2105,-0.1951,-0.1824,-0.1801,-0.1593,-0.1486,-0.1245,-0.1167,-0.1097,-0.1193,-0.1122,-0.1175,-0.1231,-0.126,-0.1399,-0.1013,-0.1014,-0.1015,-0.1016,-0.1017,0,-0.2485,-0.249,-0.242,-0.2297,-0.2041,-0.2069,-0.1858,-0.1725,-0.1559,-0.147,-0.1337,-0.1094,-0.0966,-0.093,-0.0894,-0.0856,-0.0899,-0.0862,-0.0981,-0.0978,-0.1067,-0.1137,-0.0752,-0.0752,-0.0752,-0.0752,-0.0752,-0.0752,-0.2343,-0.2245,-0.2244,-0.1825,-0.1701,-0.1358,-0.1234,-0.1152,-0.1076,-0.0897,-0.0744,-0.0642,-0.0676,-0.0815,-0.0829,-0.0797,-0.0844,-0.078,-0.0833,-0.0977,-0.1009,-0.104,-0.112,-0.0738,-0.0738,-0.0726,-0.0726,-0.0726]},{"header":{"parameterUnit":"m.s-1","parameterCategory":2,"la1":30.2991,"la2":30.254,"lo1":-89.0895,"lo2":-89.0444,"dy":0.0017,"dx":0.0017,"nx":28,"ny":28,"refTime":"2025-09-05T03:00:00:Z","depth":"0","parameterNumber":3,"parameterNumberName":"V-component_of_CURRENTS"},"data":[0,0,0,0,0,0,0,0,0,0,0,0,0,0,0,0,0,0,0,0,0,0,0,0,0,0,0,0,0,0,0,0,0,0,0,0,0,0,0,0,0,0,0,0,0,0,0,0,0,0,0,0,0,0,0,0,0,0,-0.0522,-0.0521,0,-0.0398,-0.0396,-0.0395,-0.0322,-0.0322,-0.0322,-0.0321,-0.0208,-0.0206,-0.0203,0,0,0,0,0,0,0,0,0,0,0,0,0,-0.0679,-0.0677,-0.0523,-0.0521,-0.0519,-0.0398,-0.0396,-0.0395,-0.0323,-0.0322,-0.0322,-0.0321,-0.0209,-0.0206,-0.0203,0,0,0,0,0,0,0,0,0,0,0,0,0,-0.0589,-0.0676,-0.0523,-0.0468,-0.0462,-0.0398,-0.0396,-0.0394,-0.0323,-0.0322,-0.0322,-0.0321,-0.021,-0.0207,-0.0203,-0.0188,0,0,-0.019,-0.0189,0,0,0,0,0,0,0,0,-0.0594,-0.0584,-0.0478,-0.0472,-0.0465,-0.0375,-0.041,-0.0326,-0.0323,-0.0376,-0.0321,-0.0321,-0.0265,-0.0257,-0.0235,-0.0183,-0.0178,-0.019,-0.0187,-0.0186,-0.0185,0,0,0,0,0,0,0,-0.0601,-0.0588,-0.0474,-0.0476,-0.0468,-0.0443,-0.043,-0.0394,-0.0326,-0.0372,-0.0366,-0.0351,-0.0262,-0.0239,-0.0232,-0.0176,-0.019,-0.0186,-0.0184,-0.0182,-0.0135,-0.0136,0,0,0,0,0,0,-0.0616,-0.0594,-0.0478,-0.047,-0.0529,-0.0441,-0.0426,-0.0405,-0.0326,-0.0313,-0.0352,-0.0348,-0.0246,-0.0237,-0.0228,-0.0236,-0.0186,-0.0182,-0.018,-0.0134,-0.0135,-0.0137,0,0,0,0,0,0,-0.062,-0.0607,-0.0483,-0.0529,-0.0512,-0.0439,-0.0415,-0.0402,-0.0379,-0.031,-0.0298,-0.0341,-0.0245,-0.0233,-0.0209,-0.023,-0.018,-0.0177,-0.0133,-0.0134,-0.0136,-0.0234,0,0,0,0,0,0,-0.0625,-0.0609,-0.0603,-0.053,-0.051,-0.0456,-0.0415,-0.04,-0.037,-0.0365,-0.0298,-0.0286,-0.0244,-0.0216,-0.0205,-0.0224,-0.0173,-0.0131,-0.0133,-0.0136,-0.0229,-0.0239,-0.0247,0,0,0,0,0,-0.0631,-0.0626,-0.0603,-0.0589,-0.0502,-0.0456,-0.0444,-0.0391,-0.0371,-0.0367,-0.0328,-0.0288,-0.0222,-0.0213,-0.0201,-0.0218,-0.013,-0.0133,-0.0135,-0.0225,-0.0237,-0.0247,0,0,0,0,0,0,-0.0688,-0.0615,-0.059,-0.0561,-0.0518,-0.0444,-0.0433,-0.0398,-0.0362,-0.0359,-0.0298,-0.0284,-0.0272,-0.0234,-0.0226,-0.0213,-0.0172,-0.0172,-0.0244,-0.0254,-0.0263,-0.0264,-0.017,0,0,0,0,0,-0.0699,-0.0678,-0.0608,-0.0589,-0.0569,-0.0504,-0.048,-0.0445,-0.04,-0.0382,-0.0338,-0.0298,-0.0273,-0.0255,-0.0222,-0.0212,-0.0128,-0.0217,-0.0226,-0.0234,-0.0227,-0.0102,-0.0098,-0.0145,-0.0145,-0.0145,0,0,-0.0715,-0.0674,-0.0661,-0.0601,-0.0561,-0.055,-0.0488,-0.0458,-0.0456,-0.0378,-0.0367,-0.0325,-0.0277,-0.0269,-0.026,-0.0239,-0.0183,-0.0237,-0.0244,-0.0233,-0.0104,-0.0099,-0.0094,-0.0147,-0.0147,-0.0146,0,0,-0.0753,-0.0703,-0.0706,-0.0675,-0.0623,-0.0585,-0.0582,-0.0516,-0.0494,-0.0474,-0.0427,-0.0396,-0.0352,-0.0321,-0.0301,-0.0338,-0.0234,-0.0335,-0.0377,-0.0257,-0.0251,-0.0245,-0.0154,-0.0139,-0.0339,-0.034,-0.034,0,-0.0778,-0.0767,-0.0702,-0.0701,-0.0685,-0.061,-0.0619,-0.0588,-0.0527,-0.0507,-0.0487,-0.0403,-0.0376,-0.0349,-0.0377,-0.0357,-0.0272,-0.0342,-0.0266,-0.0257,-0.0249,-0.0157,-0.0139,-0.0345,-0.0344,-0.0344,-0.0343,0,-0.0821,-0.0814,-0.0814,-0.079,-0.0766,-0.0759,-0.0707,-0.0683,-0.0646,-0.0602,-0.0556,-0.0499,-0.0443,-0.0443,-0.0427,-0.0373,-0.0328,-0.0289,-0.0234,-0.025,-0.0153,-0.0132,-0.0352,-0.035,-0.0349,-0.0347,0,0,-0.0862,-0.085,-0.0849,-0.0852,-0.0812,-0.079,-0.0792,-0.0753,-0.0724,-0.0673,-0.0619,-0.0603,-0.0541,-0.0515,-0.0473,-0.0388,-0.0289,-0.0328,-0.0319,-0.0232,-0.0025,-0.0033,-0.001,-0.0219,-0.0216,-0.0213,0.0013,0,-0.0915,-0.0953,-0.0923,-0.0946,-0.0957,-0.0892,-0.0886,-0.084,-0.0781,-0.0708,-0.0635,-0.0571,-0.0577,-0.0531,-0.0459,-0.0309,-0.0234,-0.0354,-0.0028,-0.0019,-0.0017,0.0014,0.0035,0.0236,0.0034,0.0037,0.004,0,-0.0964,-0.0982,-0.1033,-0.1013,-0.1006,-0.1008,-0.095,-0.0929,-0.0824,-0.0768,-0.0688,-0.06,-0.05,-0.0478,-0.0247,-0.0313,-0.0196,-0.0082,-0.0069,-0.0022,0.0013,0.0223,0.0282,0.0383,0.0073,0.0071,0.0068,0,-0.1028,-0.1044,-0.1092,-0.109,-0.1065,-0.1063,-0.1036,-0.0954,-0.09,-0.0785,-0.0696,-0.0578,-0.0456,-0.0304,-0.0128,-0.0157,0.0165,0.0166,0.0265,0.0266,0.0374,0.0378,0.0579,0.0337,0.0336,0.0335,0.0335,0,-0.1093,-0.1117,-0.1125,-0.1147,-0.116,-0.1118,-0.1081,-0.1037,-0.0919,-0.0818,-0.0726,-0.0585,-0.0392,-0.0199,-0.008,0.0158,0.0206,0.0275,0.0335,0.0334,0.0331,0.0495,0.0511,0.0344,0.0342,0.034,0.0339,0,-0.115,-0.1166,-0.1203,-0.1203,-0.1196,-0.1201,-0.111,-0.1048,-0.0955,-0.0806,-0.0757,-0.0533,-0.0284,-0.0112,0.0185,0.0253,0.0529,0.052,0.0478,0.0527,0.0669,0.0677,0.0938,0.101,0.0677,0.0679,0.068,0,-0.1183,-0.122,-0.1244,-0.1242,-0.1244,-0.1222,-0.1172,-0.1086,-0.1003,-0.0756,-0.067,-0.04,-0.018,0.0208,0.0372,0.0589,0.0644,0.0721,0.0645,0.0695,0.0752,0.0748,0.0789,0.0757,0.0758,0.076,0.0761,0,-0.1227,-0.1243,-0.1267,-0.1274,-0.1251,-0.1199,-0.1134,-0.1087,-0.0933,-0.0777,-0.0504,-0.0298,0.0061,0.0346,0.0572,0.0683,0.078,0.0752,0.086,0.087,0.0834,0.0925,0.0561,0.0773,0.0771,0.0771,0.077,0.0769,-0.1233,-0.1264,-0.1283,-0.1273,-0.1233,-0.1162,-0.1126,-0.1022,-0.0876,-0.0603,-0.0364,0.0068,0.0347,0.0684,0.0778,0.0948,0.0909,0.1012,0.1033,0.1036,0.1056,0.0678,0.0907,0.0907,0.0906,0.0906,0.0906,0,-0.1223,-0.1245,-0.1251,-0.1234,-0.1161,-0.1147,-0.106,-0.0994,-0.0835,-0.0455,-0.0131,0.0538,0.0773,0.0982,0.1135,0.1234,0.125,0.129,0.1319,0.136,0.1105,0.1055,0.1259,0.1259,0.1259,0.1259,0.1259,0.1258,-0.1213,-0.123,-0.1235,-0.1141,-0.1109,-0.1018,-0.0974,-0.089,-0.0649,-0.0104,0.0452,0.0933,0.1245,0.1358,0.1491,0.1503,0.1618,0.1586,0.1658,0.1485,0.1461,0.1438,0.1398,0.1671,0.1671,0.1918,0.192,0.1922]}],[{"header":{"parameterUnit":"m.s-1","parameterCategory":2,"la1":30.2991,"la2":30.254,"lo1":-89.0895,"lo2":-89.0444,"dy":0.0017,"dx":0.0017,"nx":28,"ny":28,"refTime":"2025-09-05T03:00:00:Z","depth":"2","parameterNumber":2,"parameterNumberName":"U-component_of_CURRENTS"},"data":[0,0,0,0,0,0,0,0,0,0,0,0,0,0,0,0,0,0,0,0,0,0,0,0,0,0,0,0,0,0,0,0,0,0,0,0,0,0,0,0,0,0,0,0,0,0,0,0,0,0,0,0,0,0,0,0,0,0,-0.1527,-0.1529,0,-0.1559,-0.1559,-0.1558,-0.1549,-0.155,-0.155,-0.155,-0.1552,-0.1552,-0.1552,0,0,0,0,0,0,0,0,0,0,0,0,0,-0.1464,-0.1464,-0.1527,-0.1529,-0.153,-0.1559,-0.1559,-0.1558,-0.1549,-0.155,-0.155,-0.1551,-0.1552,-0.1552,-0.1551,0,0,0,0,0,0,0,0,0,0,0,0,0,-0.1483,-0.1464,-0.1527,-0.1537,-0.1539,-0.156,-0.1559,-0.1558,-0.1549,-0.155,-0.155,-0.1551,-0.1552,-0.1552,-0.1551,-0.154,0,0,-0.155,-0.155,0,0,0,0,0,0,0,0,-0.1482,-0.1484,-0.1534,-0.1536,-0.1539,-0.156,-0.1538,-0.1554,-0.1549,-0.1534,-0.155,-0.1551,-0.1558,-0.1558,-0.1548,-0.154,-0.154,-0.155,-0.155,-0.155,-0.155,0,0,0,0,0,0,0,-0.148,-0.1483,-0.1529,-0.1536,-0.1539,-0.1542,-0.1544,-0.154,-0.1535,-0.1536,-0.1538,-0.1558,-0.1558,-0.1548,-0.1548,-0.154,-0.155,-0.155,-0.155,-0.155,-0.1599,-0.16,0,0,0,0,0,0,-0.1497,-0.1481,-0.1529,-0.1531,-0.1523,-0.1544,-0.1545,-0.1544,-0.1535,-0.1538,-0.1557,-0.1557,-0.1549,-0.1549,-0.1548,-0.1597,-0.155,-0.155,-0.1549,-0.1597,-0.1599,-0.1601,0,0,0,0,0,0,-0.1495,-0.15,-0.1527,-0.1517,-0.1522,-0.1545,-0.1543,-0.1545,-0.1547,-0.1554,-0.1554,-0.1561,-0.1549,-0.1549,-0.1568,-0.1595,-0.1549,-0.1549,-0.1595,-0.1598,-0.16,-0.1654,0,0,0,0,0,0,-0.1492,-0.1498,-0.1497,-0.1517,-0.1524,-0.155,-0.1544,-0.1546,-0.1563,-0.1563,-0.1557,-0.1557,-0.1549,-0.1569,-0.1568,-0.1593,-0.1549,-0.1594,-0.1597,-0.1599,-0.165,-0.1658,-0.1664,0,0,0,0,0,-0.1489,-0.1477,-0.1496,-0.1503,-0.1523,-0.1552,-0.1554,-0.1565,-0.1563,-0.1566,-0.1573,-0.1558,-0.1586,-0.1569,-0.1568,-0.1594,-0.1592,-0.1596,-0.1599,-0.1647,-0.1656,-0.1664,0,0,0,0,0,0,-0.1442,-0.1478,-0.1498,-0.1496,-0.1535,-0.1554,-0.1559,-0.1571,-0.1574,-0.1578,-0.1571,-0.1572,-0.1601,-0.159,-0.1572,-0.1619,-0.1589,-0.1592,-0.1626,-0.1635,-0.1642,-0.1656,-0.1549,0,0,0,0,0,-0.1438,-0.1447,-0.1488,-0.1496,-0.151,-0.1537,-0.155,-0.1568,-0.1583,-0.1584,-0.1586,-0.1594,-0.1611,-0.1617,-0.1624,-0.1642,-0.1612,-0.1662,-0.1669,-0.1675,-0.1687,-0.1679,-0.1686,-0.1612,-0.1612,-0.1612,0,0,-0.1435,-0.1451,-0.1463,-0.149,-0.1512,-0.1547,-0.1542,-0.1571,-0.1606,-0.1584,-0.1613,-0.1616,-0.1622,-0.1651,-0.1663,-0.1646,-0.1672,-0.1679,-0.1684,-0.1694,-0.1683,-0.169,-0.1696,-0.1614,-0.1614,-0.1614,0,0,-0.1441,-0.1437,-0.1458,-0.1488,-0.1537,-0.1553,-0.1567,-0.1599,-0.1612,-0.1649,-0.165,-0.1673,-0.1685,-0.1702,-0.1711,-0.176,-0.1711,-0.1762,-0.1807,-0.1799,-0.1804,-0.1809,-0.1742,-0.174,-0.1764,-0.1764,-0.1764,0,-0.1446,-0.1464,-0.1472,-0.1504,-0.1535,-0.156,-0.1601,-0.1619,-0.1659,-0.1678,-0.1669,-0.1716,-0.1714,-0.1765,-0.1785,-0.1776,-0.1741,-0.1772,-0.1806,-0.1811,-0.1815,-0.1745,-0.1743,-0.1767,-0.1767,-0.1767,-0.1766,0,-0.1476,-0.1498,-0.1508,-0.1561,-0.1589,-0.1623,-0.1667,-0.1698,-0.1715,-0.1737,-0.1786,-0.1792,-0.1819,-0.1827,-0.1821,-0.1861,-0.1814,-0.1814,-0.1781,-0.1825,-0.1749,-0.1745,-0.1772,-0.177,-0.177,-0.1769,0,0,-0.1462,-0.1524,-0.153,-0.1562,-0.1621,-0.1644,-0.1709,-0.1764,-0.1795,-0.1834,-0.1866,-0.1914,-0.191,-0.1922,-0.1919,-0.1921,-0.1902,-0.1883,-0.1881,-0.1809,-0.1838,-0.1766,-0.1753,-0.1906,-0.1907,-0.1908,-0.1758,0,-0.149,-0.1554,-0.158,-0.1644,-0.1672,-0.1721,-0.1772,-0.1827,-0.1855,-0.1882,-0.1912,-0.1936,-0.1947,-0.1955,-0.1965,-0.1915,-0.1903,-0.194,-0.1814,-0.1809,-0.1734,-0.1752,-0.163,-0.1485,-0.1754,-0.1754,-0.1753,0,-0.1497,-0.1539,-0.1609,-0.1676,-0.1694,-0.1736,-0.1806,-0.1859,-0.1914,-0.1939,-0.1984,-0.1984,-0.2007,-0.1999,-0.1958,-0.1978,-0.1922,-0.1881,-0.1874,-0.1792,-0.1733,-0.1494,-0.1468,-0.1746,-0.1747,-0.1747,-0.1748,0,-0.1457,-0.1542,-0.1594,-0.1622,-0.1713,-0.1752,-0.1798,-0.1868,-0.1896,-0.1964,-0.1961,-0.2012,-0.1986,-0.1977,-0.191,-0.1927,-0.1827,-0.183,-0.1713,-0.1704,-0.157,-0.1549,-0.1807,-0.1807,-0.1808,-0.1808,-0.1809,0,-0.1446,-0.1482,-0.1575,-0.1604,-0.1642,-0.1725,-0.1768,-0.1829,-0.1892,-0.1897,-0.1969,-0.1956,-0.198,-0.1927,-0.1896,-0.1778,-0.1813,-0.1718,-0.1675,-0.158,-0.1563,-0.1781,-0.178,-0.1802,-0.1804,-0.1805,-0.1806,0,-0.1375,-0.1454,-0.15,-0.1601,-0.1619,-0.1641,-0.1717,-0.1748,-0.1824,-0.1826,-0.1842,-0.1877,-0.1814,-0.1806,-0.1743,-0.1713,-0.1645,-0.1598,-0.146,-0.1406,-0.152,-0.1524,-0.1439,-0.1436,-0.1433,-0.1431,-0.1429,0,-0.1352,-0.1366,-0.1456,-0.1469,-0.1506,-0.1554,-0.1584,-0.1693,-0.1715,-0.176,-0.1734,-0.1703,-0.1645,-0.1529,-0.1493,-0.1411,-0.151,-0.1267,-0.1307,-0.1523,-0.1489,-0.1498,-0.1505,-0.1118,-0.1113,-0.111,-0.1107,0,-0.1278,-0.1307,-0.1346,-0.1365,-0.1393,-0.1432,-0.1477,-0.1482,-0.1592,-0.1584,-0.1549,-0.1508,-0.1404,-0.1274,-0.1204,-0.1161,-0.1284,-0.1189,-0.1442,-0.1252,-0.1214,-0.1184,-0.1202,-0.1075,-0.1078,-0.108,-0.1082,-0.1083,-0.1207,-0.1187,-0.123,-0.1235,-0.1273,-0.1296,-0.1284,-0.1329,-0.1331,-0.1306,-0.1342,-0.124,-0.1207,-0.1023,-0.0956,-0.0925,-0.1017,-0.0995,-0.1009,-0.1025,-0.1037,-0.1,-0.0817,-0.0818,-0.082,-0.0821,-0.0822,0,-0.109,-0.1081,-0.1092,-0.1112,-0.1118,-0.1179,-0.1197,-0.1162,-0.1105,-0.1112,-0.1065,-0.0916,-0.0814,-0.0797,-0.0679,-0.0656,-0.0678,-0.0645,-0.0677,-0.0708,-0.0735,-0.0736,-0.0434,-0.0433,-0.0432,-0.0431,0,0,-0.1031,-0.0985,-0.0988,-0.0959,-0.0973,-0.0936,-0.0924,-0.087,-0.0847,-0.076,-0.0719,-0.0779,-0.0764,-0.0609,-0.056,-0.0476,-0.0596,-0.0451,-0.0758,-0.0826,-0.0853,-0.0923,-0.0956,0,0,0,0,0]},{"header":{"parameterUnit":"m.s-1","parameterCategory":2,"la1":30.2991,"la2":30.254,"lo1":-89.0895,"lo2":-89.0444,"dy":0.0017,"dx":0.0017,"nx":28,"ny":28,"refTime":"2025-09-05T03:00:00:Z","depth":"2","parameterNumber":3,"parameterNumberName":"V-component_of_CURRENTS"},"data":[0,0,0,0,0,0,0,0,0,0,0,0,0,0,0,0,0,0,0,0,0,0,0,0,0,0,0,0,0,0,0,0,0,0,0,0,0,0,0,0,0,0,0,0,0,0,0,0,0,0,0,0,0,0,0,0,0,0,-0.0275,-0.0274,0,-0.02,-0.0199,-0.0198,-0.0152,-0.0152,-0.0152,-0.0152,-0.007,-0.0068,-0.0065,0,0,0,0,0,0,0,0,0,0,0,0,0,-0.0336,-0.0335,-0.0275,-0.0274,-0.0273,-0.02,-0.0199,-0.0197,-0.0152,-0.0152,-0.0152,-0.0152,-0.007,-0.0068,-0.0065,0,0,0,0,0,0,0,0,0,0,0,0,0,-0.0289,-0.0335,-0.0275,-0.0243,-0.0239,-0.02,-0.0198,-0.0197,-0.0153,-0.0152,-0.0152,-0.0152,-0.0071,-0.0068,-0.0065,-0.0048,0,0,-0.0055,-0.0054,0,0,0,0,0,0,0,0,-0.0291,-0.0286,-0.0248,-0.0245,-0.0241,-0.0186,-0.019,-0.0147,-0.0153,-0.0184,-0.0152,-0.0152,-0.0109,-0.0103,-0.0087,-0.0044,-0.0041,-0.0055,-0.0053,-0.0052,-0.0051,0,0,0,0,0,0,0,-0.0295,-0.0289,-0.0244,-0.0248,-0.0243,-0.0217,-0.0211,-0.0181,-0.0147,-0.0181,-0.0178,-0.0172,-0.0107,-0.009,-0.0085,-0.004,-0.0055,-0.0052,-0.005,-0.0049,0.0032,0.0032,0,0,0,0,0,0,-0.0309,-0.0292,-0.0246,-0.0242,-0.0268,-0.0217,-0.0209,-0.0203,-0.0147,-0.0139,-0.0172,-0.017,-0.0096,-0.0089,-0.0082,-0.0056,-0.0052,-0.0049,-0.0047,0.0032,0.0032,0.0033,0,0,0,0,0,0,-0.0311,-0.0306,-0.0249,-0.0266,-0.0257,-0.0216,-0.0209,-0.0202,-0.0186,-0.0141,-0.0132,-0.0164,-0.0095,-0.0086,-0.0055,-0.0052,-0.0047,-0.0044,0.0032,0.0032,0.0032,-0.0006,0,0,0,0,0,0,-0.0313,-0.0307,-0.0309,-0.0267,-0.0257,-0.0231,-0.0209,-0.02,-0.0183,-0.0179,-0.0131,-0.0123,-0.0095,-0.006,-0.0052,-0.0048,-0.0042,0.0031,0.0032,0.0032,-0.0005,-0.0007,-0.0008,0,0,0,0,0,-0.0315,-0.032,-0.0309,-0.0304,-0.0261,-0.0231,-0.0223,-0.0192,-0.0183,-0.0177,-0.0143,-0.0125,-0.0051,-0.0057,-0.0048,-0.0043,0.0031,0.0032,0.0032,-0.0004,-0.0006,-0.0008,0,0,0,0,0,0,-0.0343,-0.0315,-0.0302,-0.0297,-0.0268,-0.0224,-0.0218,-0.0196,-0.0165,-0.0164,-0.0121,-0.011,-0.0083,-0.0057,-0.0065,-0.0018,-0.0007,-0.0005,-0.0038,-0.004,-0.0042,-0.0054,-0.0039,0,0,0,0,0,-0.0353,-0.0352,-0.0314,-0.0311,-0.03,-0.026,-0.0245,-0.0224,-0.0191,-0.0177,-0.0142,-0.0105,-0.0073,-0.0053,-0.0023,0.0004,0.0031,0.0014,0.0012,0.001,0.0007,0.0052,0.0054,0.0034,0.0034,0.0034,0,0,-0.0362,-0.0347,-0.0346,-0.0317,-0.0294,-0.0281,-0.025,-0.0233,-0.0219,-0.0173,-0.0146,-0.0113,-0.0068,-0.0039,-0.0024,-0.0016,0.003,0.0011,0.0009,0.0007,0.0053,0.0055,0.0056,0.0035,0.0035,0.0035,0,0,-0.0388,-0.0369,-0.0379,-0.0358,-0.0331,-0.0302,-0.03,-0.0258,-0.0236,-0.0206,-0.017,-0.0133,-0.0086,-0.0047,-0.0024,-0.0016,0.0016,-0.0009,-0.0022,0.0021,0.0023,0.0025,0.0058,0.0064,-0.0005,-0.0006,-0.0006,0,-0.0402,-0.0407,-0.0376,-0.0377,-0.0364,-0.0316,-0.0317,-0.0284,-0.0236,-0.0216,-0.0206,-0.0124,-0.0088,-0.0041,-0.0039,-0.002,0.0004,-0.002,0.0018,0.002,0.0023,0.0057,0.0064,-0.0007,-0.0007,-0.0007,-0.0007,0,-0.0433,-0.0434,-0.0437,-0.0422,-0.0401,-0.0394,-0.0347,-0.0324,-0.0293,-0.0255,-0.0207,-0.0151,-0.0101,-0.0083,-0.0059,-0.002,-0.0009,0.0006,0.002,0.0023,0.0059,0.0066,-0.001,-0.0009,-0.0009,-0.0008,0,0,-0.0466,-0.0463,-0.0462,-0.0467,-0.0426,-0.0414,-0.0387,-0.0345,-0.0327,-0.0272,-0.0239,-0.0176,-0.014,-0.0111,-0.0068,-0.0029,0.0011,-0.0009,-0.0006,0.0018,0.0099,0.0124,0.0134,0.003,0.0031,0.0032,0.0115,0,-0.0498,-0.0527,-0.0504,-0.0512,-0.0518,-0.0465,-0.0443,-0.0398,-0.0348,-0.0302,-0.023,-0.0187,-0.0151,-0.0129,-0.0081,-0.001,0.0029,-0.0013,0.0099,0.0102,0.0119,0.0143,0.0129,0.0203,0.0123,0.0124,0.0125,0,-0.0533,-0.0547,-0.0575,-0.0564,-0.056,-0.0552,-0.0507,-0.0481,-0.0399,-0.0362,-0.0295,-0.0233,-0.0156,-0.0134,-0.0008,-0.0038,0.0022,0.0075,0.008,0.012,0.014,0.0189,0.022,0.0137,0.0136,0.0135,0.0135,0,-0.0583,-0.0591,-0.0621,-0.0616,-0.0595,-0.0592,-0.0572,-0.0503,-0.0478,-0.0398,-0.0365,-0.0263,-0.0203,-0.0116,0.0006,-0.0004,0.0141,0.0145,0.0224,0.0226,0.0245,0.0248,0.0222,0.0222,0.0222,0.0222,0.0222,0,-0.0626,-0.0645,-0.0651,-0.0667,-0.0684,-0.0648,-0.0644,-0.0604,-0.0542,-0.0498,-0.0403,-0.0337,-0.0196,-0.0086,0.0003,0.0145,0.0144,0.0227,0.0254,0.0232,0.0232,0.0199,0.0195,0.0225,0.0224,0.0224,0.0223,0,-0.0672,-0.0682,-0.0713,-0.0714,-0.0714,-0.0725,-0.0701,-0.0691,-0.0627,-0.0563,-0.0539,-0.0386,-0.0233,-0.0093,0.0071,0.015,0.0271,0.0315,0.0277,0.0298,0.0323,0.0316,0.041,0.0412,0.0413,0.0414,0.0415,0,-0.0698,-0.0724,-0.0754,-0.0773,-0.0776,-0.0787,-0.079,-0.0743,-0.0721,-0.0579,-0.0549,-0.0382,-0.0235,0.0011,0.0168,0.0333,0.0324,0.0404,0.0385,0.0328,0.0345,0.0336,0.0327,0.0395,0.0396,0.0397,0.0397,0,-0.0733,-0.075,-0.0776,-0.0822,-0.0843,-0.086,-0.0856,-0.0851,-0.0767,-0.0682,-0.0529,-0.0397,-0.0143,0.0067,0.0271,0.0359,0.0376,0.0422,0.0392,0.0346,0.0321,0.0334,0.0326,0.0403,0.0402,0.0402,0.0402,0.0401,-0.0747,-0.0774,-0.0814,-0.0852,-0.0886,-0.091,-0.0914,-0.0876,-0.0813,-0.0649,-0.0529,-0.0301,-0.0114,0.0201,0.0333,0.0448,0.0448,0.0475,0.047,0.0466,0.0446,0.0424,0.0521,0.0521,0.0521,0.0521,0.0521,0,-0.0744,-0.0783,-0.0833,-0.0882,-0.0925,-0.0933,-0.0935,-0.0901,-0.0807,-0.0622,-0.0448,-0.0209,0.0023,0.0203,0.0399,0.0511,0.0486,0.0519,0.0467,0.0461,0.0457,0.0433,0.0507,0.0507,0.0507,0.0507,0,0,-0.0744,-0.079,-0.0822,-0.0895,-0.0931,-0.0956,-0.0952,-0.0873,-0.075,-0.054,-0.0359,-0.0159,0.006,0.0188,0.0327,0.0429,0.0409,0.0429,0.0433,0.0351,0.0344,0.0429,0.0387,0,0,0,0,0]}],[{"header":{"parameterUnit":"m.s-1","parameterCategory":2,"la1":30.2991,"la2":30.254,"lo1":-89.0895,"lo2":-89.0444,"dy":0.0017,"dx":0.0017,"nx":28,"ny":28,"refTime":"2025-09-05T03:00:00:Z","depth":"4","parameterNumber":2,"parameterNumberName":"U-component_of_CURRENTS"},"data":[0,0,0,0,0,0,0,0,0,0,0,0,0,0,0,0,0,0,0,0,0,0,0,0,0,0,0,0,0,0,0,0,0,0,0,0,0,0,0,0,0,0,0,0,0,0,0,0,0,0,0,0,0,0,0,0,0,0,-0.0975,-0.0975,0,-0.1028,-0.1028,-0.1029,-0.1049,-0.1049,-0.1049,-0.1049,-0.1091,-0.1092,-0.1094,0,0,0,0,0,0,0,0,0,0,0,0,0,-0.0899,-0.09,-0.0975,-0.0975,-0.0976,-0.1027,-0.1028,-0.1029,-0.1049,-0.1049,-0.1049,-0.1049,-0.1091,-0.1092,-0.1094,0,0,0,0,0,0,0,0,0,0,0,0,0,-0.094,-0.0901,-0.0975,-0.0992,-0.0994,-0.1027,-0.1028,-0.1029,-0.1049,-0.1049,-0.1049,-0.1048,-0.109,-0.1092,-0.1094,-0.1113,0,0,-0.11,-0.1101,0,0,0,0,0,0,0,0,-0.0938,-0.0943,-0.0989,-0.0991,-0.0993,-0.1031,-0.1017,-0.1056,-0.1049,-0.1029,-0.1049,-0.1048,-0.107,-0.1074,-0.1085,-0.1115,-0.1117,-0.11,-0.1102,-0.1102,-0.1103,0,0,0,0,0,0,0,-0.0935,-0.0941,-0.0996,-0.0989,-0.0992,-0.0999,-0.1005,-0.1025,-0.1051,-0.1031,-0.1032,-0.1037,-0.1071,-0.1083,-0.1086,-0.1117,-0.11,-0.1102,-0.1103,-0.1104,-0.1194,-0.1195,0,0,0,0,0,0,-0.0928,-0.0939,-0.0995,-0.0998,-0.0963,-0.1001,-0.1007,-0.102,-0.1051,-0.1055,-0.1037,-0.1038,-0.108,-0.1084,-0.1088,-0.1147,-0.1102,-0.1104,-0.1105,-0.1193,-0.1194,-0.1195,0,0,0,0,0,0,-0.0926,-0.0932,-0.0992,-0.0968,-0.0976,-0.1002,-0.1016,-0.1021,-0.1048,-0.1056,-0.106,-0.1062,-0.108,-0.1085,-0.1121,-0.1147,-0.1105,-0.1107,-0.1191,-0.1193,-0.1195,-0.1243,0,0,0,0,0,0,-0.0924,-0.0932,-0.0947,-0.0968,-0.0977,-0.1028,-0.1017,-0.1022,-0.105,-0.1052,-0.1078,-0.1081,-0.108,-0.1118,-0.1123,-0.1149,-0.1109,-0.119,-0.1192,-0.1194,-0.1239,-0.1246,-0.1251,0,0,0,0,0,-0.0921,-0.094,-0.0947,-0.0955,-0.0995,-0.1029,-0.1036,-0.1052,-0.1052,-0.1074,-0.1088,-0.1081,-0.1135,-0.1121,-0.1126,-0.1154,-0.1189,-0.1191,-0.1194,-0.1237,-0.1245,-0.1251,0,0,0,0,0,0,-0.0911,-0.0944,-0.0953,-0.0981,-0.101,-0.1033,-0.1055,-0.1064,-0.1094,-0.1098,-0.11,-0.1104,-0.1143,-0.1144,-0.1128,-0.1185,-0.116,-0.1163,-0.119,-0.1198,-0.1203,-0.12,-0.111,0,0,0,0,0,-0.0917,-0.0942,-0.0972,-0.0995,-0.1014,-0.1039,-0.1057,-0.1071,-0.1093,-0.1107,-0.1124,-0.1141,-0.1157,-0.1173,-0.1189,-0.1226,-0.1208,-0.1246,-0.1252,-0.1257,-0.1258,-0.125,-0.1255,-0.1204,-0.1204,-0.1204,0,0,-0.0918,-0.0939,-0.0954,-0.0996,-0.1021,-0.1057,-0.105,-0.1087,-0.1116,-0.1107,-0.1157,-0.1165,-0.1171,-0.1209,-0.1227,-0.1215,-0.1263,-0.126,-0.1265,-0.1263,-0.1253,-0.1258,-0.1262,-0.1206,-0.1205,-0.1205,0,0,-0.0934,-0.0957,-0.0988,-0.1018,-0.1061,-0.1079,-0.1094,-0.1133,-0.1153,-0.1197,-0.1193,-0.1217,-0.1253,-0.1261,-0.1268,-0.1317,-0.1292,-0.1325,-0.1357,-0.135,-0.1353,-0.1356,-0.1342,-0.1343,-0.1331,-0.1331,-0.1331,0,-0.0936,-0.0977,-0.1002,-0.1042,-0.1069,-0.1092,-0.1132,-0.1158,-0.1203,-0.122,-0.122,-0.1265,-0.1276,-0.1307,-0.1326,-0.133,-0.1317,-0.133,-0.1356,-0.1359,-0.1361,-0.1345,-0.1346,-0.1333,-0.1333,-0.1333,-0.1332,0,-0.0975,-0.1015,-0.1037,-0.1094,-0.1127,-0.1166,-0.1203,-0.1238,-0.126,-0.1279,-0.132,-0.1332,-0.1354,-0.1366,-0.1364,-0.1392,-0.1375,-0.1361,-0.1335,-0.1369,-0.135,-0.135,-0.1337,-0.1336,-0.1335,-0.1335,0,0,-0.0961,-0.1049,-0.1058,-0.1093,-0.1159,-0.1187,-0.1241,-0.1289,-0.1316,-0.1354,-0.138,-0.1419,-0.1418,-0.1425,-0.1425,-0.1426,-0.1437,-0.1408,-0.1406,-0.1388,-0.1415,-0.1304,-0.1293,-0.1427,-0.1427,-0.1427,-0.1396,0,-0.0986,-0.1061,-0.1102,-0.1171,-0.1211,-0.1253,-0.1298,-0.1341,-0.1371,-0.1401,-0.1412,-0.1439,-0.1443,-0.1453,-0.1457,-0.1438,-0.1439,-0.1446,-0.139,-0.1388,-0.1281,-0.129,-0.1428,-0.1396,-0.1396,-0.1396,-0.1396,0,-0.1007,-0.1056,-0.1129,-0.1208,-0.1231,-0.1275,-0.1338,-0.1382,-0.1425,-0.1446,-0.1471,-0.1474,-0.1492,-0.148,-0.1471,-0.1475,-0.1456,-0.1437,-0.1435,-0.1312,-0.1276,-0.1356,-0.1395,-0.1395,-0.1395,-0.1396,-0.1396,0,-0.0969,-0.1069,-0.1126,-0.1156,-0.125,-0.1289,-0.1337,-0.1394,-0.1423,-0.1469,-0.148,-0.1503,-0.1502,-0.1492,-0.1463,-0.1471,-0.1428,-0.1429,-0.1312,-0.1304,-0.1393,-0.139,-0.1419,-0.1419,-0.1419,-0.1419,-0.1419,0,-0.0961,-0.1006,-0.1117,-0.1144,-0.1205,-0.1279,-0.1334,-0.1381,-0.1434,-0.1453,-0.1497,-0.1492,-0.1504,-0.1479,-0.1461,-0.1373,-0.1427,-0.1311,-0.1285,-0.1415,-0.1414,-0.1392,-0.139,-0.1418,-0.1418,-0.1419,-0.1419,0,-0.0895,-0.0975,-0.1039,-0.1151,-0.1186,-0.1226,-0.1321,-0.1348,-0.1417,-0.1437,-0.145,-0.1478,-0.1439,-0.1428,-0.1393,-0.1348,-0.1292,-0.125,-0.1382,-0.1366,-0.1178,-0.1179,-0.1118,-0.1114,-0.111,-0.1107,-0.1105,0,-0.0865,-0.0896,-0.1019,-0.1056,-0.1108,-0.1183,-0.1223,-0.1318,-0.1343,-0.1411,-0.1399,-0.1391,-0.1391,-0.1243,-0.1257,-0.1194,-0.1181,-0.1158,-0.1179,-0.1165,-0.1146,-0.1152,-0.1158,-0.1099,-0.1098,-0.1097,-0.1096,0,-0.0797,-0.085,-0.0902,-0.098,-0.1038,-0.1096,-0.1165,-0.1172,-0.1268,-0.1336,-0.1298,-0.1265,-0.1205,-0.1158,-0.1106,-0.1073,-0.1178,-0.1121,-0.1129,-0.1148,-0.1141,-0.1127,-0.1137,-0.1083,-0.1085,-0.1086,-0.1087,0,-0.0741,-0.0755,-0.0833,-0.0888,-0.0958,-0.0991,-0.1045,-0.1073,-0.1108,-0.1191,-0.1168,-0.1161,-0.1187,-0.1093,-0.1053,-0.0996,-0.0986,-0.097,-0.0986,-0.1,-0.0973,-0.0948,-0.08,0,0,0,0,0,-0.0681,-0.0689,-0.0737,-0.0801,-0.0865,-0.0907,-0.0995,-0.1052,-0.1138,-0.1074,-0.1122,-0.1064,-0.0992,-0.099,-0.09,-0.0996,-0.0992,-0.0891,-0.0985,-0.1014,-0.1029,-0.1006,0,0,0,0,0,0,-0.0642,-0.0678,-0.0701,-0.0712,-0.0735,-0.0798,-0.0848,-0.0917,-0.0894,-0.0976,-0.0928,-0.0992,-0.0921,-0.1004,-0.087,-0.0869,-0.0906,-0.0896,-0.0893,-0.1006,-0.1019,-0.1031,-0.1013,0,0,0,0,0]},{"header":{"parameterUnit":"m.s-1","parameterCategory":2,"la1":30.2991,"la2":30.254,"lo1":-89.0895,"lo2":-89.0444,"dy":0.0017,"dx":0.0017,"nx":28,"ny":28,"refTime":"2025-09-05T03:00:00:Z","depth":"4","parameterNumber":3,"parameterNumberName":"V-component_of_CURRENTS"},"data":[0,0,0,0,0,0,0,0,0,0,0,0,0,0,0,0,0,0,0,0,0,0,0,0,0,0,0,0,0,0,0,0,0,0,0,0,0,0,0,0,0,0,0,0,0,0,0,0,0,0,0,0,0,0,0,0,0,0,-0.0191,-0.0191,0,-0.014,-0.014,-0.0139,-0.0113,-0.0113,-0.0113,-0.0114,-0.0056,-0.0054,-0.0052,0,0,0,0,0,0,0,0,0,0,0,0,0,-0.0226,-0.0226,-0.0191,-0.0191,-0.019,-0.014,-0.0139,-0.0139,-0.0113,-0.0113,-0.0113,-0.0114,-0.0056,-0.0054,-0.0052,0,0,0,0,0,0,0,0,0,0,0,0,0,-0.0196,-0.0225,-0.0191,-0.0172,-0.017,-0.014,-0.0139,-0.0138,-0.0113,-0.0113,-0.0113,-0.0114,-0.0057,-0.0054,-0.0052,-0.0035,0,0,-0.0045,-0.0044,0,0,0,0,0,0,0,0,-0.0198,-0.0194,-0.0175,-0.0173,-0.0171,-0.0134,-0.0131,-0.0104,-0.0113,-0.0134,-0.0114,-0.0114,-0.0082,-0.0077,-0.0066,-0.0032,-0.003,-0.0044,-0.0043,-0.0042,-0.0041,0,0,0,0,0,0,0,-0.02,-0.0196,-0.017,-0.0175,-0.0172,-0.0152,-0.0148,-0.0125,-0.0107,-0.0132,-0.013,-0.0126,-0.008,-0.0069,-0.0065,-0.0029,-0.0045,-0.0042,-0.0041,-0.004,0.0032,0.0032,0,0,0,0,0,0,-0.021,-0.0198,-0.0172,-0.0169,-0.0186,-0.0152,-0.0147,-0.0145,-0.0107,-0.0102,-0.0126,-0.0125,-0.0073,-0.0068,-0.0063,-0.0041,-0.0042,-0.004,-0.0038,0.0031,0.0032,0.0032,0,0,0,0,0,0,-0.0211,-0.0208,-0.0174,-0.0183,-0.0177,-0.0151,-0.0149,-0.0144,-0.0135,-0.0103,-0.0097,-0.0122,-0.0073,-0.0066,-0.0041,-0.0039,-0.0039,-0.0036,0.0031,0.0031,0.0032,0.0002,0,0,0,0,0,0,-0.0212,-0.0209,-0.0212,-0.0184,-0.0177,-0.0161,-0.0149,-0.0143,-0.0132,-0.0131,-0.0098,-0.0093,-0.0072,-0.0044,-0.0038,-0.0035,-0.0035,0.003,0.0031,0.0032,0.0002,0.0002,0.0001,0,0,0,0,0,-0.0213,-0.022,-0.0213,-0.021,-0.0183,-0.0161,-0.0156,-0.0137,-0.0132,-0.0129,-0.0104,-0.0094,-0.0034,-0.0042,-0.0035,-0.0032,0.003,0.0031,0.0032,0.0003,0.0002,0.0001,0,0,0,0,0,0,-0.0238,-0.0218,-0.0209,-0.0209,-0.0189,-0.0157,-0.0156,-0.014,-0.0118,-0.0119,-0.0087,-0.008,-0.0058,-0.0038,-0.0047,-0.0007,-0.0001,0.0002,-0.0025,-0.0026,-0.0026,-0.0038,-0.0033,0,0,0,0,0,-0.0245,-0.0245,-0.0219,-0.0219,-0.0212,-0.0184,-0.0174,-0.016,-0.0136,-0.0127,-0.0101,-0.0073,-0.0047,-0.0032,-0.0008,0.0015,0.0033,0.0022,0.0022,0.0021,0.0017,0.0049,0.005,0.0036,0.0036,0.0036,0,0,-0.0254,-0.0244,-0.0244,-0.0224,-0.0209,-0.02,-0.0179,-0.0168,-0.0158,-0.0124,-0.0105,-0.0077,-0.0042,-0.0018,-0.0006,-0.0001,0.0035,0.0022,0.0021,0.0018,0.005,0.0051,0.0052,0.0036,0.0036,0.0036,0,0,-0.0276,-0.0265,-0.0273,-0.0258,-0.0238,-0.0217,-0.0216,-0.0186,-0.0171,-0.0146,-0.0119,-0.0089,-0.0051,-0.0022,-0.0003,0.0008,0.0027,0.0015,0.0005,0.0035,0.0036,0.0037,0.0061,0.0064,0.0017,0.0017,0.0017,0,-0.0288,-0.0294,-0.0271,-0.0272,-0.0264,-0.0228,-0.0231,-0.0206,-0.0169,-0.0156,-0.0146,-0.008,-0.0052,-0.0015,-0.0011,0.0006,0.0022,0.0003,0.0033,0.0034,0.0036,0.006,0.0064,0.0016,0.0016,0.0016,0.0016,0,-0.0312,-0.0316,-0.0319,-0.0309,-0.0294,-0.0291,-0.0255,-0.0238,-0.0215,-0.0186,-0.0147,-0.0101,-0.0062,-0.0045,-0.0025,0.0005,0.0013,0.0024,0.003,0.0035,0.0061,0.0065,0.0014,0.0015,0.0015,0.0015,0,0,-0.0338,-0.0339,-0.0339,-0.0345,-0.0315,-0.0308,-0.0288,-0.0258,-0.0247,-0.02,-0.0177,-0.0122,-0.0094,-0.007,-0.0034,-0.0003,0.0025,0.0012,0.0014,0.0027,0.0086,0.0078,0.0082,0.0038,0.0039,0.004,0.0097,0,-0.0363,-0.0388,-0.0372,-0.0383,-0.039,-0.0351,-0.0336,-0.0302,-0.0264,-0.023,-0.017,-0.0136,-0.0103,-0.0085,-0.0047,0.0008,0.0037,0.0008,0.0086,0.0089,0.0074,0.0088,0.0042,0.0101,0.0102,0.0103,0.0104,0,-0.039,-0.0403,-0.043,-0.0428,-0.0427,-0.0425,-0.0396,-0.0376,-0.0314,-0.0283,-0.023,-0.0179,-0.0117,-0.0095,0.0,-0.0022,0.0026,0.0068,0.0072,0.0077,0.009,0.0098,0.0113,0.0113,0.0112,0.0111,0.0111,0,-0.0427,-0.044,-0.047,-0.0468,-0.0457,-0.0461,-0.0449,-0.0399,-0.0381,-0.0316,-0.0291,-0.0209,-0.0164,-0.0093,0.0003,-0.0001,0.0104,0.0111,0.0149,0.0149,0.0151,0.015,0.017,0.017,0.017,0.017,0.017,0,-0.0456,-0.0478,-0.0497,-0.051,-0.0537,-0.0509,-0.0517,-0.0486,-0.0439,-0.0407,-0.0327,-0.0274,-0.0162,-0.0079,-0.0005,0.009,0.0101,0.0148,0.0165,0.0138,0.0134,0.0155,0.0152,0.0172,0.0172,0.0171,0.0171,0,-0.0485,-0.0501,-0.0536,-0.055,-0.056,-0.0578,-0.0573,-0.0568,-0.0516,-0.047,-0.045,-0.0324,-0.0208,-0.0099,0.003,0.0079,0.0169,0.0198,0.016,0.0173,0.0193,0.0188,0.024,0.024,0.0241,0.0241,0.0241,0,-0.05,-0.0526,-0.0574,-0.0603,-0.0615,-0.0639,-0.065,-0.0615,-0.06,-0.0488,-0.0465,-0.0338,-0.0244,-0.0061,0.0042,0.0175,0.0193,0.0224,0.0209,0.019,0.0201,0.0196,0.0191,0.0241,0.0241,0.0241,0.0241,0,-0.052,-0.0548,-0.0577,-0.0642,-0.0678,-0.0705,-0.0715,-0.0708,-0.064,-0.0598,-0.0451,-0.0326,-0.0191,-0.0047,0.0055,0.0151,0.0194,0.0226,0.0226,0.0213,0.0192,0.0201,0.0197,0.0242,0.0242,0.0242,0.0242,0,-0.0532,-0.0564,-0.0615,-0.0665,-0.0718,-0.0745,-0.0749,-0.0706,-0.0675,-0.0545,-0.0492,-0.0317,-0.0209,-0.0059,0.004,0.0128,0.0145,0.0157,0.0161,0.0161,0.0118,0.0079,0.011,0,0,0,0,0,-0.0532,-0.0572,-0.0628,-0.0686,-0.074,-0.0765,-0.0775,-0.0764,-0.0703,-0.0601,-0.0539,-0.0398,-0.0198,-0.0105,-0.0017,0.0007,0.0126,0.0107,0.0133,0.0245,0.0245,0.0206,0,0,0,0,0,0,-0.0535,-0.0591,-0.0625,-0.069,-0.073,-0.0779,-0.0785,-0.0747,-0.0684,-0.0598,-0.0489,-0.0394,-0.0211,-0.0242,-0.0016,0.0012,0.0034,0.0208,0.021,0.0246,0.0245,0.0245,0.0204,0,0,0,0,0]}]]